{"data":{"norad_id":64180,"intl_designator":"2025-113L","name":"STARLINK-34000","alt_names":[],"object_type":"PAYLOAD","status":"ACTIVE","operator":null,"country":"US","launch_date":"2025-05-28","launch_site_code":"AFETR","launch_vehicle":null,"mission":null,"orbit_class":"UNKNOWN","rcs_meters":null,"size_class":null,"mass_kg":null,"dimensions":null,"purposes":["comms"],"wikipedia_slug":null,"has_3d_model":false,"image_url":null,"decayed_at":null,"tle_current":{"epoch":"2026-09-20T13:24:37.722816Z","epoch_age_seconds":135403,"freshness":"FRESH","line1":"1 64180U 25113L   26263.55876994  .00017386  00000+0  57050-3 0  9997","line2":"2 64180  53.1566 265.0491 0001167  78.9842 281.1291 15.31712061 74874","mean_motion":15.31712061,"eccentricity":0.0001167,"inclination_deg":53.1566,"raan_deg":265.0491,"arg_perigee_deg":78.9842,"mean_anomaly_deg":281.1291,"bstar":0.0005705,"rev_number":7487,"period_min":94.012447682881,"perigee_km":469.90478249854,"apogee_km":471.5033019978,"semimajor_km":6848.8410422482,"source":"CELESTRAK","updated_at":"2026-09-21T09:00:35.244709Z"}}}